VOI1782 MMSP-MMMX

Flight info

Callsign VOI1782
Flight time 0h 38m
Altitude 30000
Route TAMSA UJ45 QET UT150 DARAN DARAN3A
Aircraft A20N/M-SDE2E3FGHIRWXY/LB1

Departure

Time 2026-05-09 02:54
Airport Ponciano Arriaga International Airport (MMSP)

Arrival

Time 2026-05-09 03:32
Airport Mexico City Benito Juárez International Airport (MMMX)
Time Latitude Longitude Altitude Speed Heading
2026-05-09 02:39 22.25402 -100.93467 6023 ft 0 kts 338°
2026-05-09 02:49 22.25406 -100.93469 6023 ft 1 kts 341°
2026-05-09 02:49 22.25409 -100.93469 6024 ft 1 kts 354°
2026-05-09 02:49 22.25428 -100.93470 6025 ft 5 kts 359°
2026-05-09 02:49 22.25469 -100.93473 6026 ft 6 kts 355°
2026-05-09 02:50 22.25515 -100.93479 6028 ft 7 kts 352°
2026-05-09 02:50 22.25560 -100.93488 6028 ft 7 kts
2026-05-09 02:50 22.25596 -100.93461 6029 ft 6 kts 56°
2026-05-09 02:50 22.25599 -100.93422 6030 ft 6 kts 98°
2026-05-09 02:51 22.25583 -100.93374 6030 ft 8 kts 117°
2026-05-09 02:51 22.25550 -100.93309 6031 ft 12 kts 119°
2026-05-09 02:51 22.25503 -100.93219 6031 ft 16 kts 120°
2026-05-09 02:51 22.25441 -100.93101 6031 ft 20 kts 119°
2026-05-09 02:52 22.25350 -100.93026 6033 ft 17 kts 151°
2026-05-09 02:52 22.25233 -100.92955 6036 ft 21 kts 150°
2026-05-09 02:52 22.25113 -100.92881 6041 ft 18 kts 167°
2026-05-09 02:52 22.25015 -100.92874 6042 ft 13 kts 98°
2026-05-09 02:53 22.25048 -100.92839 6042 ft 4 kts 328°
2026-05-09 02:53 22.25099 -100.92873 6041 ft 23 kts 329°
2026-05-09 02:53 22.25431 -100.93079 6032 ft 88 kts 330°
2026-05-09 02:53 22.26121 -100.93518 6029 ft 142 kts 329°
2026-05-09 02:54 22.27065 -100.94122 6203 ft 165 kts 330°
2026-05-09 02:54 22.28076 -100.94788 6640 ft 175 kts 330°
2026-05-09 02:54 22.29134 -100.95496 7043 ft 183 kts 327°
2026-05-09 02:54 22.30200 -100.96349 7269 ft 204 kts 317°
2026-05-09 02:55 22.31174 -100.97615 7441 ft 232 kts 299°
2026-05-09 02:55 22.31823 -100.99297 7697 ft 254 kts 281°
2026-05-09 02:55 22.31952 -101.01253 7970 ft 271 kts 261°
2026-05-09 02:55 22.31437 -101.03234 8437 ft 279 kts 242°
2026-05-09 02:56 22.30319 -101.04929 9096 ft 279 kts 223°
2026-05-09 02:56 22.28733 -101.06138 9783 ft 282 kts 205°
2026-05-09 02:56 22.26854 -101.06713 10288 ft 293 kts 187°
2026-05-09 02:56 22.24734 -101.06525 10541 ft 315 kts 165°
2026-05-09 02:57 22.22761 -101.05417 10760 ft 337 kts 142°
2026-05-09 02:57 22.21076 -101.03576 11167 ft 350 kts 133°
2026-05-09 02:57 22.19548 -101.01477 11573 ft 361 kts 128°
2026-05-09 02:57 22.18073 -100.99216 11803 ft 376 kts 126°
2026-05-09 02:58 22.16572 -100.96837 12010 ft 390 kts 126°
2026-05-09 02:58 22.15013 -100.94384 12213 ft 402 kts 127°
2026-05-09 02:58 22.13388 -100.91882 12398 ft 413 kts 127°
2026-05-09 02:58 22.11705 -100.89346 12706 ft 418 kts 128°
2026-05-09 02:59 22.09829 -100.86943 13047 ft 419 kts 141°
2026-05-09 02:59 22.07447 -100.85150 13457 ft 420 kts 152°
2026-05-09 02:59 22.04847 -100.83663 13878 ft 421 kts 157°
2026-05-09 02:59 22.02171 -100.82370 14278 ft 423 kts 160°
2026-05-09 03:00 21.99450 -100.81154 14742 ft 424 kts 160°
2026-05-09 03:00 21.96715 -100.79952 15224 ft 425 kts 160°
2026-05-09 03:00 21.94002 -100.78745 15696 ft 427 kts 160°
2026-05-09 03:00 21.91224 -100.77483 16178 ft 429 kts 159°
2026-05-09 03:01 21.88508 -100.76220 16651 ft 432 kts 157°
2026-05-09 03:01 21.86690 -100.75222 16893 ft 437 kts 154°
2026-05-09 03:01 21.83114 -100.73109 17160 ft 448 kts 153°
2026-05-09 03:01 21.80375 -100.71456 17442 ft 453 kts 153°
2026-05-09 03:02 21.77616 -100.69786 17832 ft 455 kts 153°
2026-05-09 03:02 21.75784 -100.68677 18097 ft 457 kts 153°
2026-05-09 03:02 21.73009 -100.66994 18412 ft 459 kts 153°
2026-05-09 03:02 21.70225 -100.65306 18726 ft 460 kts 153°
2026-05-09 03:03 21.67424 -100.63608 19030 ft 462 kts 153°
2026-05-09 03:03 21.64623 -100.61911 19331 ft 463 kts 153°
2026-05-09 03:03 21.61806 -100.60206 19599 ft 465 kts 153°
2026-05-09 03:03 21.58986 -100.58499 19879 ft 466 kts 153°
2026-05-09 03:04 21.56156 -100.56788 20192 ft 466 kts 153°
2026-05-09 03:04 21.53332 -100.55081 20558 ft 465 kts 153°
2026-05-09 03:04 21.50515 -100.53379 20913 ft 465 kts 153°
2026-05-09 03:04 21.47695 -100.51676 21275 ft 465 kts 153°
2026-05-09 03:05 21.44874 -100.49973 21636 ft 465 kts 153°
2026-05-09 03:05 21.42057 -100.48272 22010 ft 465 kts 153°
2026-05-09 03:05 21.39233 -100.46569 22385 ft 466 kts 153°
2026-05-09 03:05 21.36401 -100.44862 22773 ft 466 kts 153°
2026-05-09 03:06 21.33569 -100.43155 23157 ft 467 kts 153°
2026-05-09 03:06 21.30735 -100.41448 23542 ft 468 kts 153°
2026-05-09 03:06 21.27928 -100.39759 23861 ft 469 kts 153°
2026-05-09 03:06 21.25044 -100.38023 24196 ft 470 kts 153°
2026-05-09 03:07 21.22225 -100.36328 24517 ft 471 kts 153°
2026-05-09 03:07 21.19362 -100.34606 24864 ft 472 kts 153°
2026-05-09 03:07 21.16495 -100.32883 25202 ft 474 kts 153°
2026-05-09 03:07 21.13611 -100.31151 25544 ft 475 kts 153°
2026-05-09 03:08 21.10727 -100.29420 25887 ft 476 kts 153°
2026-05-09 03:08 21.07831 -100.27682 26250 ft 478 kts 153°
2026-05-09 03:08 21.04921 -100.25936 26606 ft 480 kts 154°
2026-05-09 03:08 21.01999 -100.24185 26968 ft 481 kts 154°
2026-05-09 03:09 20.99077 -100.22432 27330 ft 483 kts 154°
2026-05-09 03:09 20.96146 -100.20676 27726 ft 484 kts 154°
2026-05-09 03:09 20.93201 -100.18913 28123 ft 485 kts 154°
2026-05-09 03:09 20.90253 -100.17148 28535 ft 486 kts 154°
2026-05-09 03:10 20.87290 -100.15376 28949 ft 487 kts 154°
2026-05-09 03:10 20.84345 -100.13614 29291 ft 481 kts 154°
2026-05-09 03:10 20.81487 -100.11902 29487 ft 459 kts 154°
2026-05-09 03:10 20.78801 -100.10292 29652 ft 440 kts 154°
2026-05-09 03:11 20.76173 -100.08721 29654 ft 427 kts 154°
2026-05-09 03:11 20.73610 -100.07191 29270 ft 420 kts 154°
2026-05-09 03:11 20.71056 -100.05670 28696 ft 419 kts 154°
2026-05-09 03:11 20.68515 -100.04156 28282 ft 417 kts 154°
2026-05-09 03:12 20.65987 -100.02650 28022 ft 417 kts 154°
2026-05-09 03:12 20.63448 -100.01138 27763 ft 416 kts 154°
2026-05-09 03:12 20.60924 -99.99635 27506 ft 415 kts 154°
2026-05-09 03:12 20.58405 -99.98134 27162 ft 414 kts 154°
2026-05-09 03:13 20.53406 -99.95158 26405 ft 409 kts 154°
2026-05-09 03:13 20.50929 -99.93685 26022 ft 407 kts 153°
2026-05-09 03:13 20.48465 -99.92219 25572 ft 403 kts 153°
2026-05-09 03:14 20.46019 -99.90765 25116 ft 400 kts 153°
2026-05-09 03:14 20.43587 -99.89320 24679 ft 399 kts 153°
2026-05-09 03:14 20.41164 -99.87881 24299 ft 397 kts 153°
2026-05-09 03:14 20.38790 -99.86471 24008 ft 394 kts 153°
2026-05-09 03:15 20.36399 -99.85052 23730 ft 392 kts 153°
2026-05-09 03:15 20.34014 -99.83636 23426 ft 391 kts 153°
2026-05-09 03:15 20.31649 -99.82233 23107 ft 389 kts 153°
2026-05-09 03:15 20.29282 -99.80830 22774 ft 388 kts 153°
2026-05-09 03:16 20.26927 -99.79434 22446 ft 386 kts 153°
2026-05-09 03:16 20.24583 -99.78046 22130 ft 384 kts 153°
2026-05-09 03:16 20.22251 -99.76658 22013 ft 383 kts 152°
2026-05-09 03:16 20.19862 -99.75436 21988 ft 378 kts 166°
2026-05-09 03:17 20.17319 -99.74894 21863 ft 365 kts 172°
2026-05-09 03:17 20.14859 -99.74497 21586 ft 352 kts 173°
2026-05-09 03:17 20.12459 -99.74099 21203 ft 346 kts 172°
2026-05-09 03:17 20.10095 -99.73680 20824 ft 343 kts 172°
2026-05-09 03:18 20.07749 -99.73244 20447 ft 340 kts 171°
2026-05-09 03:18 20.05452 -99.72804 20055 ft 339 kts 171°
2026-05-09 03:18 20.03141 -99.72354 19647 ft 337 kts 171°
2026-05-09 03:18 20.00843 -99.71902 19255 ft 335 kts 171°
2026-05-09 03:19 19.98554 -99.71450 18863 ft 333 kts 171°
2026-05-09 03:19 19.96284 -99.71000 18480 ft 332 kts 171°
2026-05-09 03:19 19.94026 -99.70552 18047 ft 330 kts 171°
2026-05-09 03:19 19.91765 -99.70103 17611 ft 329 kts 171°
2026-05-09 03:20 19.89520 -99.69658 17207 ft 327 kts 171°
2026-05-09 03:20 19.87282 -99.69213 17025 ft 326 kts 171°
2026-05-09 03:20 19.85050 -99.68765 17045 ft 327 kts 168°
2026-05-09 03:20 19.82876 -99.68041 17050 ft 328 kts 157°
2026-05-09 03:21 19.80938 -99.66770 17047 ft 329 kts 139°
2026-05-09 03:21 19.79468 -99.64911 17057 ft 331 kts 125°
2026-05-09 03:21 19.78266 -99.62884 17048 ft 324 kts 122°
2026-05-09 03:21 19.77149 -99.60862 17019 ft 311 kts 121°
2026-05-09 03:22 19.76088 -99.58914 16878 ft 299 kts 121°
2026-05-09 03:22 19.75063 -99.57025 16633 ft 293 kts 121°
2026-05-09 03:22 19.74043 -99.55148 16399 ft 293 kts 121°
2026-05-09 03:22 19.73023 -99.53274 16158 ft 292 kts 121°
2026-05-09 03:23 19.72006 -99.51405 15916 ft 292 kts 121°
2026-05-09 03:23 19.70996 -99.49550 15681 ft 291 kts 121°
2026-05-09 03:23 19.69981 -99.47685 15443 ft 290 kts 121°
2026-05-09 03:23 19.68972 -99.45831 15211 ft 290 kts 121°
2026-05-09 03:24 19.67978 -99.44005 14986 ft 289 kts 122°
2026-05-09 03:24 19.66973 -99.42160 14755 ft 288 kts 122°
2026-05-09 03:24 19.65969 -99.40317 14528 ft 287 kts 122°
2026-05-09 03:24 19.64973 -99.38490 14295 ft 286 kts 122°
2026-05-09 03:25 19.63978 -99.36665 14098 ft 285 kts 122°
2026-05-09 03:25 19.62986 -99.34846 13913 ft 285 kts 122°
2026-05-09 03:25 19.61993 -99.33028 13705 ft 284 kts 121°
2026-05-09 03:25 19.61004 -99.31215 13501 ft 283 kts 121°
2026-05-09 03:26 19.59985 -99.29458 13272 ft 274 kts 131°
2026-05-09 03:26 19.58626 -99.28101 13026 ft 266 kts 143°
2026-05-09 03:26 19.57151 -99.26930 12821 ft 264 kts 145°
2026-05-09 03:26 19.55661 -99.25787 12722 ft 264 kts 145°
2026-05-09 03:27 19.54173 -99.24644 12723 ft 262 kts 144°
2026-05-09 03:27 19.52875 -99.23331 12727 ft 262 kts 134°
2026-05-09 03:27 19.51625 -99.21922 12736 ft 263 kts 129°
2026-05-09 03:27 19.50663 -99.20279 12765 ft 262 kts 126°
2026-05-09 03:28 19.49365 -99.18968 12781 ft 256 kts 152°
2026-05-09 03:28 19.47739 -99.18448 12781 ft 237 kts 179°
2026-05-09 03:28 19.46115 -99.18437 12790 ft 233 kts 183°
2026-05-09 03:28 19.44531 -99.18705 12663 ft 228 kts 193°
2026-05-09 03:29 19.43007 -99.19084 12372 ft 219 kts 194°
2026-05-09 03:29 19.41551 -99.19428 12072 ft 210 kts 188°
2026-05-09 03:29 19.40125 -99.19300 11576 ft 207 kts 160°
2026-05-09 03:29 19.38954 -99.18396 10815 ft 217 kts 125°
2026-05-09 03:30 19.38479 -99.16899 10036 ft 224 kts 88°
2026-05-09 03:30 19.38827 -99.15325 9491 ft 217 kts 62°
2026-05-09 03:30 19.39631 -99.14042 9282 ft 200 kts 54°
2026-05-09 03:30 19.40348 -99.12857 9228 ft 187 kts 59°
2026-05-09 03:31 19.40980 -99.11664 9092 ft 184 kts 59°
2026-05-09 03:31 19.41647 -99.10501 8587 ft 187 kts 56°
2026-05-09 03:31 19.42314 -99.09323 7890 ft 191 kts 60°
2026-05-09 03:31 19.42985 -99.08103 7333 ft 186 kts 61°
2026-05-09 03:32 19.43585 -99.07008 7305 ft 144 kts 59°
2026-05-09 03:32 19.43934 -99.06381 7305 ft 56 kts 58°
2026-05-09 03:32 19.44102 -99.06218 7304 ft 24 kts 33°
2026-05-09 03:32 19.44237 -99.06165 7304 ft 18 kts 15°
2026-05-09 03:33 19.44333 -99.06168 7304 ft 12 kts 352°
2026-05-09 03:33 19.44384 -99.06194 7305 ft 5 kts 299°
2026-05-09 03:33 19.44400 -99.06234 7305 ft 6 kts 292°
2026-05-09 03:33 19.44415 -99.06272 7305 ft 5 kts 291°
2026-05-09 03:34 19.44433 -99.06318 7305 ft 9 kts 292°
2026-05-09 03:34 19.44451 -99.06410 7306 ft 16 kts 254°
2026-05-09 03:34 19.44383 -99.06538 7306 ft 24 kts 239°
2026-05-09 03:34 19.44289 -99.06707 7306 ft 27 kts 238°
2026-05-09 03:35 19.44188 -99.06885 7306 ft 30 kts 240°
2026-05-09 03:35 19.44079 -99.07082 7306 ft 29 kts 239°
2026-05-09 03:35 19.44007 -99.07210 7306 ft 20 kts 239°
2026-05-09 03:35 19.43934 -99.07338 7306 ft 21 kts 239°
2026-05-09 03:36 19.43860 -99.07470 7305 ft 20 kts 239°
2026-05-09 03:36 19.43804 -99.07572 7305 ft 15 kts 240°
2026-05-09 03:36 19.43752 -99.07627 7305 ft 8 kts 236°
2026-05-09 03:36 19.43746 -99.07672 7305 ft 8 kts 271°
2026-05-09 03:37 19.43747 -99.07714 7305 ft 0 kts 274°